Weather History for Cleveland Municipal Airport, MS

Change the Weather History Date:

Sunday, March 9, 2014

  Actual Average (KGLH) Record (KGLH)
Temperature  
Mean Temperature 48 °F 53 °F  
Max Temperature 54 °F 63 °F 88 °F (1985)
Min Temperature 41 °F 43 °F 17 °F (1996)
Degree Days  
Heating Degree Days 17 12  
Month to date heating degree days 121  
Since 1 July heating degree days 2430  
Cooling Degree Days 0 0  
Month to date cooling degree days 0  
Year to date cooling degree days 5  
Moisture  
Dew Point 44 °F    
Average Humidity 87    
Maximum Humidity 100    
Minimum Humidity 76    
Precipitation  
Precipitation 0.00 in 0.13 in 2.05 in (1990)
Month to date precipitation 1.19  
Year to date precipitation 11.18  
Sea Level Pressure  
Sea Level Pressure 30.23 in    
Wind  
Wind Speed 9 mph (North)    
Max Wind Speed 15 mph    
Max Gust Speed 16 mph    
Visibility 4 miles    
Events      
T = Trace of Precipitation, MM = Missing Value Source: NWS Daily Summary

Daily Weather History Graph

Daily Weather History Graph

Search for Another Location

Airport:

Trip Planner

Search our weather history database for the weather conditions in past years. The results will help you decide how hot, cold, wet, or windy it might be!

Date:

Astronomy

Mar. 09, 2014 Rise Set
Actual Time 7:21 AM CDT 7:06 PM CDT
Civil Twilight 6:56 AM CDT 7:31 PM CDT
Nautical Twilight 6:27 AM CDT 7:59 PM CDT
Astronomical Twilight 5:58 AM CDT 8:28 PM CDT
Moon 1:10 PM CDT (3/9) 3:35 AM CDT (3/9)
Length of Visible Light 12h 34m
Length of Day
11h 44m
First Quarter, 61% of the Moon is Illuminated
Mar 9
First Quarter
Mar 16
Full
Mar 23
Last Quarter
Mar 30
New
Apr 7
First Quarter

Hourly Weather History & Observations

Time (CDT) Temp. Windchill Dew Point Humidity Pressure Visibility Wind Dir Wind Speed Gust Speed Precip Events Conditions
12:15 AM 54.9 °F - 51.8 °F 89% 30.18 in 10.0 mi North 12.7 mph - N/A   Overcast
12:35 AM 53.6 °F - 50.2 °F 88% 30.19 in 10.0 mi North 11.5 mph - N/A   Overcast
12:55 AM 52.7 °F - 49.1 °F 88% 30.20 in 10.0 mi NNE 9.2 mph - N/A   Overcast
1:15 AM 52.3 °F - 47.7 °F 84% 30.19 in 10.0 mi NNE 10.4 mph - N/A   Overcast
1:35 AM 51.8 °F - 47.3 °F 85% 30.19 in 10.0 mi NNE 10.4 mph - N/A   Overcast
1:55 AM 50.7 °F - 46.6 °F 86% 30.19 in 10.0 mi NNE 11.5 mph - N/A   Mostly Cloudy
3:15 AM 50.0 °F - 45.1 °F 83% 30.20 in 10.0 mi North 13.8 mph - N/A   Scattered Clouds
3:35 AM 48.6 °F - 44.6 °F 86% 30.19 in 7.0 mi North 10.4 mph - N/A   Mostly Cloudy
3:55 AM 48.4 °F - 44.4 °F 86% 30.19 in 7.0 mi NNE 11.5 mph - N/A   Overcast
4:15 AM 47.8 °F - 44.4 °F 88% 30.19 in 7.0 mi North 6.9 mph - N/A   Overcast
4:35 AM 46.9 °F - 43.9 °F 89% 30.19 in 5.0 mi NNE 9.2 mph - N/A   Overcast
4:55 AM 46.6 °F - 43.9 °F 90% 30.19 in 5.0 mi NNE 8.1 mph - N/A   Scattered Clouds
5:15 AM 46.6 °F - 43.5 °F 89% 30.21 in 5.0 mi North 12.7 mph 16.1 mph N/A   Mostly Cloudy
5:35 AM 46.0 °F 40.2 °F 43.5 °F 91% 30.22 in 4.0 mi North 12.7 mph - N/A   Overcast
5:55 AM 45.9 °F 39.7 °F 43.3 °F 91% 30.22 in 4.0 mi NNE 13.8 mph - N/A   Overcast
6:15 AM 45.5 °F 40.3 °F 42.4 °F 89% 30.24 in 4.0 mi North 10.4 mph - N/A   Overcast
6:35 AM 45.0 °F 38.9 °F 42.4 °F 91% 30.25 in 4.0 mi NNE 12.7 mph - N/A   Overcast
6:55 AM 44.6 °F 38.8 °F 41.9 °F 90% 30.25 in 4.0 mi NNE 11.5 mph - N/A   Overcast
7:15 AM 44.6 °F 39.2 °F 41.5 °F 89% 30.26 in 4.0 mi North 10.4 mph - N/A   Overcast
7:35 AM 44.1 °F 38.1 °F 41.5 °F 91% 30.26 in 3.0 mi NNE 11.5 mph - N/A   Overcast
7:55 AM 43.9 °F 37.9 °F 41.5 °F 91% 30.26 in 2.0 mi North 11.5 mph - N/A   Overcast
8:15 AM 44.1 °F 38.1 °F 41.4 °F 90% 30.27 in 2.5 mi North 11.5 mph - N/A   Overcast
8:35 AM 43.9 °F 38.3 °F 41.4 °F 91% 30.28 in 2.0 mi North 10.4 mph - N/A   Overcast
8:55 AM 44.1 °F 37.1 °F 41.4 °F 90% 30.29 in 2.0 mi North 15.0 mph - N/A   Overcast
9:15 AM 44.1 °F 37.7 °F 41.2 °F 90% 30.29 in 2.5 mi North 12.7 mph - N/A   Overcast
9:35 AM 44.2 °F 38.4 °F 41.5 °F 90% 30.29 in 2.0 mi NNE 11.5 mph - N/A   Overcast
9:55 AM 45.0 °F 38.9 °F 41.7 °F 88% 30.29 in 2.5 mi NNE 12.7 mph - N/A   Overcast
10:15 AM 45.5 °F 39.6 °F 41.9 °F 87% 30.29 in 2.5 mi North 12.7 mph - N/A   Overcast
10:35 AM 45.9 °F 40.4 °F 42.3 °F 87% 30.30 in 2.5 mi North 11.5 mph - N/A   Overcast
10:55 AM 46.2 °F 40.1 °F 42.3 °F 86% 30.30 in 2.5 mi North 13.8 mph - N/A   Overcast
11:15 AM 46.6 °F - 42.6 °F 86% 30.30 in 2.5 mi North 11.5 mph - N/A   Overcast
11:35 AM 46.8 °F - 42.6 °F 85% 30.30 in 2.5 mi North 8.1 mph - N/A   Overcast
11:55 AM 47.3 °F - 43.0 °F 85% 30.30 in 2.5 mi NNW 9.2 mph - N/A   Overcast
12:15 PM 48.0 °F - 43.3 °F 84% 30.30 in 3.0 mi NNW 9.2 mph - N/A   Haze
12:35 PM 48.4 °F - 43.9 °F 84% 30.30 in 3.0 mi North 9.2 mph - N/A   Mostly Cloudy
12:55 PM 49.6 °F - 44.1 °F 81% 30.29 in 3.0 mi NNE 12.7 mph - N/A   Haze
1:15 PM 49.5 °F - 43.5 °F 80% 30.28 in 3.0 mi North 11.5 mph - N/A   Haze
1:35 PM 49.5 °F - 44.4 °F 83% 30.27 in 3.0 mi North 11.5 mph - N/A   Overcast
1:55 PM 50.0 °F - 44.2 °F 81% 30.26 in 3.0 mi North 11.5 mph - N/A   Haze
2:15 PM 50.2 °F - 44.6 °F 81% 30.26 in 3.0 mi North 3.5 mph - N/A   Haze
2:35 PM 51.1 °F - 44.6 °F 78% 30.25 in 4.0 mi North 5.8 mph - N/A   Haze
2:55 PM 51.3 °F - 44.8 °F 78% 30.25 in 4.0 mi NNW 6.9 mph - N/A   Haze
3:15 PM 51.6 °F - 44.8 °F 77% 30.24 in 4.0 mi NNW 5.8 mph - N/A   Haze
3:35 PM 52.3 °F - 45.9 °F 79% 30.24 in 4.0 mi North 6.9 mph - N/A   Haze
3:55 PM 52.3 °F - 45.7 °F 78% 30.23 in 4.0 mi North 4.6 mph - N/A   Haze
4:15 PM 52.7 °F - 45.7 °F 77% 30.22 in 5.0 mi North 3.5 mph - N/A   Haze
4:35 PM 52.9 °F - 45.5 °F 76% 30.22 in 5.0 mi North 5.8 mph - N/A   Haze
4:55 PM 53.2 °F - 45.7 °F 76% 30.22 in 5.0 mi North 5.8 mph - N/A   Haze
5:15 PM 53.4 °F - 45.9 °F 76% 30.22 in 5.0 mi NNW 6.9 mph - N/A   Haze
5:35 PM 53.2 °F - 45.7 °F 76% 30.21 in 5.0 mi NNW 5.8 mph - N/A   Haze
5:55 PM 53.2 °F - 46.4 °F 78% 30.21 in 5.0 mi NNW 6.9 mph - N/A   Haze
6:15 PM 53.1 °F - 46.6 °F 79% 30.21 in 5.0 mi North 8.1 mph - N/A   Haze
6:35 PM 52.7 °F - 45.9 °F 78% 30.21 in 5.0 mi North 8.1 mph - N/A   Haze
6:55 PM 52.3 °F - 46.2 °F 80% 30.20 in 5.0 mi NNW 5.8 mph - N/A   Haze
7:15 PM 51.1 °F - 46.0 °F 83% 30.19 in 5.0 mi North 4.6 mph - N/A   Haze
7:35 PM 50.0 °F - 46.2 °F 87% 30.20 in 7.0 mi NNW 5.8 mph - N/A   Clear
7:55 PM 48.7 °F - 46.4 °F 92% 30.19 in 5.0 mi NNW 5.8 mph - N/A   Clear
8:15 PM 48.2 °F - 45.5 °F 90% 30.19 in 5.0 mi NNW 4.6 mph - N/A   Clear
8:35 PM 47.7 °F - 45.5 °F 92% 30.19 in 5.0 mi North 4.6 mph - N/A   Clear
8:55 PM 47.7 °F - 44.8 °F 90% 30.19 in 5.0 mi North 4.6 mph - N/A   Clear
9:15 PM 46.8 °F - 44.8 °F 93% 30.19 in 5.0 mi Calm Calm - N/A   Clear
9:35 PM 46.9 °F - 44.6 °F 92% 30.20 in 5.0 mi Calm Calm - N/A   Clear
9:55 PM 45.9 °F - 44.8 °F 96% 30.20 in 5.0 mi Calm Calm - N/A   Clear
10:15 PM 45.0 °F - 44.1 °F 97% 30.21 in 4.0 mi Calm Calm - N/A   Clear
10:35 PM 43.9 °F - 43.3 °F 98% 30.21 in 4.0 mi Calm Calm - N/A   Clear
10:55 PM 44.4 °F - 43.7 °F 97% 30.21 in 4.0 mi Calm Calm - N/A   Clear
11:15 PM 43.5 °F - 43.2 °F 99% 30.21 in 4.0 mi Calm Calm - N/A   Clear
11:35 PM 43.7 °F - 43.2 °F 98% 30.20 in 3.0 mi Calm Calm - N/A   Clear
11:55 PM 42.8 °F - 42.6 °F 99% 30.20 in 3.0 mi Calm Calm - N/A   Clear
12:15 AM 43.0 °F - 43.0 °F 100% 30.19 in 2.5 mi Calm Calm - N/A   Clear
12:35 AM 42.4 °F - 42.4 °F 100% 30.20 in 1.5 mi Calm Calm - N/A   Mist
12:55 AM 41.4 °F - 41.4 °F 100% 30.19 in 1.8 mi Calm Calm - N/A   Mist